| time (UTC) | temp F | wind direction | speed knots | gust knots | rain 1hr in | rain 24hr in | rain mn in | humidity % | barometer mb |
| 20260904034557 | 70 | 0 | 0.0 | 1.7 | 0.00 | 0.00 | 0.00 | 75 | 1012.1 |
| 20260904033048 | 71 | 288 | 0.9 | 3.5 | 0.00 | 0.00 | 0.00 | 73 | 1011.8 |
| 20260904031549 | 71 | 0 | 0.0 | 2.6 | 0.00 | 0.00 | 0.00 | 70 | 1011.7 |
| 20260904030059 | 71 | 289 | 0.0 | 1.7 | 0.00 | 0.00 | 0.00 | 68 | 1011.6 |
| 20260904024549 | 71 | 0 | 0.9 | 3.5 | 0.00 | 0.00 | 0.00 | 66 | 1011.5 |
| 20260904023054 | 72 | 281 | 0.9 | 4.3 | 0.00 | 0.00 | 0.00 | 66 | 1011.5 |
| 20260904021546 | 73 | 282 | 0.9 | 3.5 | 0.00 | 0.00 | 0.00 | 64 | 1011.4 |
| 20260904020048 | 74 | 295 | 0.9 | 6.1 | 0.00 | 0.00 | 0.00 | 62 | 1011.4 |
| 20260904014553 | 74 | 281 | 1.7 | 5.2 | 0.00 | 0.00 | 0.00 | 61 | 1011.4 |
| 20260904013047 | 75 | 0 | 0.0 | 2.6 | 0.00 | 0.00 | 0.00 | 65 | 1011.5 |
| 20260904011605 | 76 | 304 | 0.9 | 3.5 | 0.00 | 0.00 | 0.00 | 65 | 1011.4 |
| 20260904010044 | 76 | 355 | 1.7 | 7.8 | 0.00 | 0.00 | 0.00 | 65 | 1011.5 |
| 20260904004557 | 76 | 181 | 3.5 | 8.7 | 0.00 | 0.00 | 0.00 | 64 | 1011.4 |
| 20260904003048 | 77 | 152 | 2.6 | 9.6 | 0.00 | 0.00 | 0.00 | 63 | 1011.4 |
| 20260904001547 | 77 | 207 | 3.5 | 6.1 | 0.00 | 0.00 | 0.00 | 63 | 1011.4 |
| 20260904000100 | 77 | 182 | 3.5 | 7.8 | 0.00 | 0.00 | 0.00 | 62 | 1011.6 |
| 20260903234554 | 78 | 205 | 4.3 | 7.8 | 0.00 | 0.00 | 0.00 | 62 | 1011.7 |
| 20260903233049 | 78 | 215 | 3.5 | 10.4 | 0.00 | 0.00 | 0.00 | 63 | 1011.8 |
| 20260903231548 | 79 | 214 | 2.6 | 9.6 | 0.00 | 0.00 | 0.00 | 63 | 1011.9 |
| 20260903230057 | 79 | 242 | 2.6 | 10.4 | 0.00 | 0.00 | 0.00 | 62 | 1012.1 |
| 20260903224552 | 79 | 175 | 3.5 | 9.6 | 0.00 | 0.00 | 0.00 | 64 | 1012.2 |
| 20260903223049 | 79 | 189 | 4.3 | 8.7 | 0.00 | 0.00 | 0.00 | 63 | 1012.4 |
| 20260903221545 | 78 | 232 | 3.5 | 8.7 | 0.00 | 0.00 | 0.00 | 64 | 1012.7 |
| 20260903220104 | 78 | 192 | 5.2 | 9.6 | 0.00 | 0.00 | 0.00 | 63 | 1012.8 |
| 20260903214553 | 79 | 235 | 3.5 | 9.6 | 0.00 | 0.00 | 0.00 | 63 | 1012.9 |
| 20260903213056 | 79 | 223 | 4.3 | 9.6 | 0.00 | 0.00 | 0.00 | 62 | 1012.9 |
| 20260903211552 | 79 | 200 | 2.6 | 12.2 | 0.00 | 0.00 | 0.00 | 63 | 1012.8 |
| 20260903210052 | 79 | 211 | 3.5 | 8.7 | 0.00 | 0.00 | 0.00 | 62 | 1012.9 |
| 20260903204552 | 79 | 161 | 3.5 | 12.2 | 0.00 | 0.00 | 0.00 | 62 | 1013.1 |
| 20260903203109 | 79 | 246 | 3.5 | 8.7 | 0.00 | 0.00 | 0.00 | 62 | 1013.2 |
| 20260903201546 | 79 | 244 | 3.5 | 8.7 | 0.00 | 0.00 | 0.00 | 61 | 1013.3 |
| 20260903200050 | 79 | 178 | 3.5 | 7.8 | 0.00 | 0.00 | 0.00 | 61 | 1013.3 |
| 20260903194554 | 79 | 206 | 4.3 | 9.6 | 0.00 | 0.00 | 0.00 | 61 | 1013.4 |
| 20260903193046 | 79 | 236 | 3.5 | 7.0 | 0.00 | 0.00 | 0.00 | 61 | 1013.7 |
| 20260903191554 | 79 | 146 | 3.5 | 8.7 | 0.00 | 0.00 | 0.00 | 61 | 1013.9 |
| 20260903190047 | 79 | 172 | 2.6 | 6.1 | 0.00 | 0.00 | 0.00 | 60 | 1014.0 |
| 20260903184546 | 78 | 0 | 0.9 | 5.2 | 0.00 | 0.00 | 0.00 | 60 | 1014.2 |
| 20260903183046 | 78 | 194 | 1.7 | 6.1 | 0.00 | 0.00 | 0.00 | 60 | 1014.3 |
| 20260903181550 | 77 | 196 | 1.7 | 6.1 | 0.00 | 0.00 | 0.00 | 62 | 1014.4 |
| 20260903180054 | 77 | 167 | 3.5 | 7.0 | 0.00 | 0.00 | 0.00 | 61 | 1014.4 |
| 20260903174547 | 77 | 137 | 2.6 | 7.8 | 0.00 | 0.00 | 0.00 | 63 | 1014.4 |
| 20260903173055 | 76 | 202 | 3.5 | 6.1 | 0.00 | 0.00 | 0.00 | 65 | 1014.6 |
| 20260903171601 | 76 | 160 | 2.6 | 7.0 | 0.00 | 0.00 | 0.00 | 65 | 1014.6 |
| 20260903170046 | 75 | 104 | 1.7 | 6.1 | 0.00 | 0.00 | 0.00 | 66 | 1014.7 |
| 20260903164602 | 75 | 186 | 2.6 | 5.2 | 0.00 | 0.00 | 0.00 | 68 | 1014.6 |
| 20260903163101 | 73 | 0 | 1.7 | 5.2 | 0.00 | 0.00 | 0.00 | 71 | 1014.5 |
| 20260903161549 | 71 | 199 | 0.0 | 3.5 | 0.00 | 0.00 | 0.00 | 75 | 1014.6 |
| 20260903160051 | 70 | 0 | 0.9 | 3.5 | 0.00 | 0.00 | 0.00 | 77 | 1014.6 |
| 20260903154550 | 69 | 117 | 0.0 | 2.6 | 0.00 | 0.00 | 0.00 | 79 | 1014.7 |
| 20260903153054 | 68 | 0 | 0.0 | 1.7 | 0.00 | 0.00 | 0.00 | 80 | 1014.6 |
| 20260903151549 | 66 | 139 | 0.9 | 2.6 | 0.00 | 0.00 | 0.00 | 82 | 1014.6 |
| 20260903150047 | 65 | 0 | 0.0 | 2.6 | 0.00 | 0.00 | 0.00 | 83 | 1014.7 |
| 20260903144552 | 64 | 131 | 0.0 | 1.7 | 0.00 | 0.00 | 0.00 | 85 | 1014.6 |
| 20260903143049 | 64 | 0 | 0.0 | 1.7 | 0.00 | 0.00 | 0.00 | 85 | 1014.4 |
| 20260903141555 | 63 | 0 | 0.0 | 0.0 | 0.00 | 0.00 | 0.00 | 85 | 1014.0 |
| 20260903140051 | 62 | 0 | 0.0 | 0.9 | 0.00 | 0.00 | 0.00 | 85 | 1013.9 |
| 20260903134545 | 62 | 0 | 0.0 | 0.0 | 0.00 | 0.00 | 0.00 | 85 | 1013.8 |
| 20260903133055 | 62 | 0 | 0.0 | 0.9 | 0.00 | 0.00 | 0.00 | 85 | 1013.9 |
| 20260903131553 | 62 | 0 | 0.0 | 0.9 | 0.00 | 0.00 | 0.00 | 85 | 1013.8 |
| 20260903130051 | 62 | 0 | 0.0 | 1.7 | 0.00 | 0.00 | 0.00 | 85 | 1013.8 |
| 20260903124553 | 63 | 0 | 0.0 | 0.9 | 0.00 | 0.00 | 0.00 | 85 | 1013.8 |
| 20260903123045 | 63 | 0 | 0.0 | 0.0 | 0.00 | 0.00 | 0.00 | 84 | 1013.7 |
| 20260903121549 | 63 | 0 | 0.0 | 0.0 | 0.00 | 0.00 | 0.00 | 85 | 1013.7 |
| 20260903120057 | 63 | 0 | 0.0 | 0.0 | 0.00 | 0.00 | 0.00 | 84 | 1013.7 |
| 20260903114547 | 63 | 0 | 0.0 | 0.9 | 0.00 | 0.00 | 0.00 | 84 | 1013.8 |
| 20260903113131 | 63 | 0 | 0.0 | 0.9 | 0.00 | 0.00 | 0.00 | 84 | 1013.9 |
| 20260903111549 | 63 | 0 | 0.0 | 1.7 | 0.00 | 0.00 | 0.00 | 84 | 1014.0 |
| 20260903110051 | 63 | 0 | 0.0 | 1.7 | 0.00 | 0.00 | 0.00 | 84 | 1013.9 |
| 20260903104608 | 63 | 0 | 0.0 | 0.9 | 0.00 | 0.00 | 0.00 | 83 | 1014.0 |
| 20260903103052 | 63 | 0 | 0.0 | 0.0 | 0.00 | 0.00 | 0.00 | 83 | 1014.1 |
| 20260903101556 | 63 | 0 | 0.0 | 0.0 | 0.00 | 0.00 | 0.00 | 83 | 1014.2 |
| 20260903100047 | 64 | 0 | 0.0 | 0.0 | 0.00 | 0.00 | 0.00 | 82 | 1014.2 |
| 20260903094552 | 64 | 0 | 0.0 | 0.0 | 0.00 | 0.00 | 0.00 | 82 | 1014.3 |
| 20260903093051 | 64 | 0 | 0.0 | 0.0 | 0.00 | 0.00 | 0.00 | 82 | 1014.3 |
| 20260903091551 | 64 | 0 | 0.0 | 0.0 | 0.00 | 0.00 | 0.00 | 81 | 1014.5 |
| 20260903090050 | 64 | 0 | 0.0 | 0.0 | 0.00 | 0.00 | 0.00 | 80 | 1014.7 |
| 20260903084548 | 65 | 0 | 0.0 | 0.0 | 0.00 | 0.00 | 0.00 | 80 | 1014.8 |
| 20260903083057 | 65 | 0 | 0.0 | 0.0 | 0.00 | 0.00 | 0.00 | 80 | 1014.9 |
| 20260903081549 | 65 | 0 | 0.0 | 0.0 | 0.00 | 0.00 | 0.00 | 79 | 1014.9 |
| 20260903080049 | 66 | 0 | 0.0 | 0.0 | 0.00 | 0.00 | 0.00 | 79 | 1015.1 |
| 20260903074545 | 66 | 0 | 0.0 | 0.0 | 0.00 | 0.00 | 0.00 | 78 | 1015.2 |
| 20260903073046 | 66 | 0 | 0.0 | 0.0 | 0.00 | 0.00 | 0.00 | 77 | 1015.0 |
| 20260903071559 | 66 | 0 | 0.0 | 0.0 | 0.00 | 0.00 | 0.00 | 76 | 1014.9 |
| 20260903070047 | 67 | 0 | 0.0 | 0.0 | 0.00 | 0.00 | 0.00 | 75 | 1015.0 |
| 20260903064600 | 67 | 0 | 0.0 | 0.9 | 0.00 | 0.00 | 0.00 | 74 | 1015.0 |
| 20260903063053 | 68 | 0 | 0.0 | 0.0 | 0.00 | 0.00 | 0.00 | 73 | 1014.9 |
| 20260903061550 | 69 | 0 | 0.0 | 0.9 | 0.00 | 0.00 | 0.00 | 73 | 1014.7 |
| 20260903060104 | 69 | 131 | 0.0 | 1.7 | 0.00 | 0.00 | 0.00 | 72 | 1014.7 |
| 20260903054556 | 69 | 203 | 0.9 | 4.3 | 0.00 | 0.00 | 0.00 | 72 | 1014.6 |
| 20260903053053 | 69 | 177 | 1.7 | 3.5 | 0.00 | 0.00 | 0.00 | 71 | 1014.7 |
| 20260903051607 | 69 | 0 | 0.0 | 2.6 | 0.00 | 0.00 | 0.00 | 70 | 1014.9 |
| 20260903050055 | 69 | 0 | 0.0 | 1.7 | 0.00 | 0.00 | 0.00 | 70 | 1014.7 |
| 20260903044545 | 69 | 0 | 0.0 | 2.6 | 0.00 | 0.00 | 0.00 | 70 | 1014.7 |
| 20260903043145 | 69 | 0 | 0.0 | 1.7 | 0.00 | 0.00 | 0.00 | 69 | 1014.7 |
| 20260903041549 | 69 | 0 | 0.0 | 1.7 | 0.00 | 0.00 | 0.00 | 69 | 1014.6 |
| 20260903040047 | 70 | 0 | 0.0 | 0.9 | 0.00 | 0.00 | 0.00 | 69 | 1014.6 |